Tracking 30995 objects as of 5-Jul-2025
HD Live streaming from Space Station
objects crossing your sky now

STARLINK-31569

Track STARLINK-31569 now!
10-day predictions
STARLINK-31569 is classified as:


NORAD ID: 59857
Int'l Code: 2024-097Y
Perigee: 489.4 km
Apogee: 491.0 km
Inclination: 43.0 °
Period: 94.3 minutes
Semi major axis: 6861 km
RCS: Unknown
Launch date: May 23, 2024
Source: United States (US)
Launch site: AIR FORCE EASTERN TEST RANGE (AFETR)
Your satellite tracking list
ARIANE 44LP+ R/B
Track 1 satellite(s)




NASA's NSSDC Master Catalog

Two Line Element Set (TLE):
1 59857U 24097Y   25186.18644705 -.00000466  00000-0 -74064-5 0  9997
2 59857  43.0021 232.1890 0001194 261.2385  98.8331 15.27578214 64085
Source of the keplerian elements: AFSPC